DLH33 KBOS-EDDF

Flight info

Callsign DLH33
Flight time N/A
Altitude 37000
Route LBSTA DCT EBONY N381B ALLRY/M086F390 NATU BEXET/N0495F390 DCT CON DCT DEXEN UY124 DOLOP DCT KEPAD L15 FINMA DCT CHT DCT ITVIP DCT KONAN UL607 SPI T180 NIVNU T847 IMCOM IMCOM1B
Aircraft B748/H-SDE3FGHIM1M2RWXY/LB1

Departure

Time 2026-05-05 23:06
Airport Boston Logan International Airport (KBOS)

Arrival

Time N/A
Airport Frankfurt Main Airport (EDDF)
Time Latitude Longitude Altitude Speed Heading
2026-05-05 22:44 42.36562 -71.01661 29 ft 0 kts 335°
2026-05-05 22:55 42.36550 -71.01654 28 ft 2 kts 335°
2026-05-05 22:55 42.36535 -71.01644 28 ft 2 kts 344°
2026-05-05 22:55 42.36525 -71.01639 28 ft 2 kts 359°
2026-05-05 22:56 42.36503 -71.01640 27 ft 3 kts 19°
2026-05-05 22:56 42.36492 -71.01652 27 ft 0 kts 131°
2026-05-05 22:59 42.36482 -71.01638 26 ft 5 kts 132°
2026-05-05 22:59 42.36446 -71.01583 29 ft 8 kts 127°
2026-05-05 22:59 42.36421 -71.01528 28 ft 7 kts 121°
2026-05-05 23:00 42.36362 -71.01370 29 ft 10 kts 117°
2026-05-05 23:00 42.36345 -71.01330 30 ft 0 kts 120°
2026-05-05 23:01 42.36345 -71.01329 30 ft 1 kts 120°
2026-05-05 23:01 42.36342 -71.01321 30 ft 1 kts 120°
2026-05-05 23:01 42.36336 -71.01309 30 ft 3 kts 120°
2026-05-05 23:01 42.36302 -71.01235 31 ft 18 kts 120°
2026-05-05 23:02 42.36255 -71.01076 31 ft 14 kts 80°
2026-05-05 23:02 42.36326 -71.00986 31 ft 17 kts 24°
2026-05-05 23:02 42.36444 -71.00926 35 ft 16 kts 19°
2026-05-05 23:02 42.36555 -71.00875 36 ft 19 kts 19°
2026-05-05 23:03 42.36691 -71.00811 35 ft 23 kts 19°
2026-05-05 23:03 42.36868 -71.00726 29 ft 31 kts 19°
2026-05-05 23:03 42.37069 -71.00628 28 ft 31 kts 20°
2026-05-05 23:03 42.37264 -71.00528 28 ft 30 kts 20°
2026-05-05 23:04 42.37468 -71.00429 29 ft 32 kts 19°
2026-05-05 23:04 42.37665 -71.00335 30 ft 29 kts 21°
2026-05-05 23:04 42.37736 -71.00249 30 ft 9 kts 81°
2026-05-05 23:04 42.37724 -71.00144 29 ft 15 kts 109°
2026-05-05 23:05 42.37694 -71.00031 28 ft 12 kts 110°
2026-05-05 23:05 42.37669 -70.99979 28 ft 4 kts 141°
2026-05-05 23:05 42.37639 -70.99967 30 ft 6 kts 173°
2026-05-05 23:05 42.37610 -70.99972 31 ft 5 kts 192°
2026-05-05 23:06 42.37499 -71.00012 32 ft 36 kts 196°
2026-05-05 23:06 42.37009 -71.00255 33 ft 117 kts 200°
2026-05-05 23:06 42.36013 -71.00737 42 ft 182 kts 200°
2026-05-05 23:06 42.34819 -71.01280 1137 ft 179 kts 199°
2026-05-05 23:07 42.33577 -71.01849 2062 ft 196 kts 203°
2026-05-05 23:07 42.32300 -71.02398 3450 ft 190 kts 201°
2026-05-05 23:07 42.30925 -71.02623 4531 ft 221 kts 177°
2026-05-05 23:07 42.29414 -71.01646 5423 ft 261 kts 142°
2026-05-05 23:08 42.28334 -70.99558 6652 ft 285 kts 112°
2026-05-05 23:08 42.28006 -70.96856 7864 ft 300 kts 84°
2026-05-05 23:08 42.28546 -70.94136 9287 ft 300 kts 61°
2026-05-05 23:08 42.29475 -70.91599 10562 ft 311 kts 58°
2026-05-05 23:09 42.30556 -70.88935 11389 ft 335 kts 57°
2026-05-05 23:09 42.31732 -70.86096 12300 ft 356 kts 58°
2026-05-05 23:09 42.32911 -70.83047 13245 ft 377 kts 66°
2026-05-05 23:09 42.33734 -70.79591 14154 ft 395 kts 71°
2026-05-05 23:10 42.34985 -70.76213 15030 ft 409 kts 51°
2026-05-05 23:10 42.37040 -70.73515 15947 ft 416 kts 31°
2026-05-05 23:10 42.39666 -70.71811 16904 ft 421 kts 12°
2026-05-05 23:10 42.42519 -70.71262 18009 ft 421 kts 359°
2026-05-05 23:11 42.45464 -70.70741 19061 ft 431 kts
2026-05-05 23:11 42.48415 -70.69876 20116 ft 436 kts
2026-05-05 23:11 42.51408 -70.68987 20877 ft 442 kts
2026-05-05 23:11 42.54420 -70.68085 21300 ft 443 kts
2026-05-05 23:12 42.57441 -70.67176 21781 ft 446 kts
2026-05-05 23:12 42.60487 -70.66259 22437 ft 449 kts
2026-05-05 23:12 42.63562 -70.65334 23081 ft 452 kts
2026-05-05 23:12 42.66626 -70.64408 23668 ft 455 kts
2026-05-05 23:13 42.69730 -70.63523 24221 ft 456 kts
2026-05-05 23:13 42.72835 -70.62887 24738 ft 456 kts
2026-05-05 23:13 42.76029 -70.62295 25279 ft 459 kts
2026-05-05 23:13 42.79192 -70.61572 25809 ft 462 kts
2026-05-05 23:14 42.82299 -70.60695 26334 ft 467 kts 11°
2026-05-05 23:14 42.85317 -70.58842 26825 ft 483 kts 28°
2026-05-05 23:14 42.87905 -70.55833 27316 ft 497 kts 43°
2026-05-05 23:14 42.89874 -70.51877 27808 ft 512 kts 59°
2026-05-05 23:15 42.91330 -70.47416 28283 ft 518 kts 63°
2026-05-05 23:15 42.92696 -70.42859 28780 ft 519 kts 63°
2026-05-05 23:15 42.94316 -70.38504 29423 ft 510 kts 50°
2026-05-05 23:15 42.96588 -70.34886 30115 ft 498 kts 39°
2026-05-05 23:16 42.99031 -70.31548 30766 ft 495 kts 39°
2026-05-05 23:16 43.01379 -70.28184 31375 ft 495 kts 42°
2026-05-05 23:16 43.03614 -70.24558 32009 ft 495 kts 45°
2026-05-05 23:16 43.05802 -70.20950 32639 ft 491 kts 43°
2026-05-05 23:17 43.08071 -70.17487 33252 ft 487 kts 41°
2026-05-05 23:17 43.10327 -70.14029 33843 ft 486 kts 42°
2026-05-05 23:17 43.12544 -70.10534 34241 ft 488 kts 43°
2026-05-05 23:17 43.14762 -70.06996 34559 ft 490 kts 44°
2026-05-05 23:18 43.16959 -70.03480 34893 ft 492 kts 44°
2026-05-05 23:18 43.19206 -69.99884 35177 ft 495 kts 44°
2026-05-05 23:18 43.21454 -69.96301 34976 ft 497 kts 45°
2026-05-05 23:18 43.23769 -69.92721 34985 ft 507 kts 46°
2026-05-05 23:19 43.26086 -69.89026 35188 ft 512 kts 47°
2026-05-05 23:19 43.28331 -69.85334 35493 ft 513 kts 50°
2026-05-05 23:19 43.32503 -69.77369 35360 ft 516 kts 54°
2026-05-05 23:20 43.34513 -69.73276 35192 ft 516 kts 49°
2026-05-05 23:20 43.37082 -69.69891 35489 ft 508 kts 27°
2026-05-05 23:20 43.40390 -69.69103 34908 ft 492 kts 351°
2026-05-05 23:20 43.43718 -69.68567 36418 ft 478 kts 15°
2026-05-05 23:21 43.46636 -69.66591 37741 ft 470 kts 30°
2026-05-05 23:21 43.49264 -69.63700 36683 ft 505 kts 45°
2026-05-05 23:21 43.51322 -69.59691 36668 ft 507 kts 64°
2026-05-05 23:21 43.52710 -69.55358 38071 ft 490 kts 68°
2026-05-05 23:22 43.53974 -69.50923 37789 ft 505 kts 69°
2026-05-05 23:22 43.55214 -69.46331 37514 ft 519 kts 70°